Location: Unspecified
(49.9820°N, 20.4363°E)
Time: 06:33:12
(UTC+02:00)

Transit 4A - All Passes

Search period start: 14 May 2026 00:00
Search period end: 24 May 2026 00:00
Orbit: 861 x 980 km, 66.8° (Epoch: 13 May)

Date Brightness Start Highest point End Pass type
(mag) Time Alt. Az. Time Alt. Az. Time Alt. Az.
14 May - 07:10:57 10° ESE 07:13:14 12° E 07:15:31 10° ENE daylight
14 May - 08:52:14 10° SSW 08:58:16 63° ESE 09:04:32 10° NE daylight
14 May - 10:39:15 10° WSW 10:45:01 38° NW 10:50:55 10° NNE daylight
14 May - 12:28:54 10° NW 12:33:15 19° NNW 12:37:38 10° NNE daylight
14 May - 14:17:34 10° NNW 14:22:06 20° NNE 14:26:38 10° ENE daylight
14 May - 16:04:07 10° NNW 16:10:12 42° NE 16:16:15 10° ESE daylight
14 May - 17:50:33 10° NW 17:56:48 55° WSW 18:02:59 10° SSE daylight
14 May - 19:40:36 10° W 19:41:46 11° W 19:42:55 10° WSW daylight
15 May - 07:17:36 10° SE 07:21:34 18° ESE 07:25:37 10° ENE daylight
15 May - 09:00:48 10° SSW 09:06:58 84° SE 09:13:22 10° NE daylight
15 May - 10:48:34 10° W 10:54:03 31° NNW 10:59:40 10° NNE daylight
15 May - 12:38:22 10° NW 12:42:31 18° N 12:46:43 10° NE daylight
15 May - 14:26:28 10° NNW 14:31:19 22° NNE 14:36:11 10° ENE daylight
15 May - 16:12:51 10° NNW 16:19:09 53° NE 16:25:24 10° ESE daylight
15 May - 17:59:28 10° NW 18:05:24 40° WSW 18:11:15 10° S daylight
16 May - 07:25:05 10° SSE 07:30:00 26° ESE 07:35:00 10° NE daylight
16 May - 09:09:34 10° SW 09:15:45 75° NW 09:22:08 10° NE daylight
16 May - 10:57:58 10° W 11:03:09 26° NNW 11:08:27 10° NNE daylight
16 May - 12:47:44 10° NW 12:51:49 17° N 12:55:55 10° NE daylight
16 May - 14:35:18 10° NNW 14:40:31 25° NNE 14:45:43 10° E daylight
16 May - 16:21:35 10° NW 16:28:01 69° NE 16:34:23 10° SE daylight
16 May - 18:08:31 10° NW 18:13:55 29° WSW 18:19:15 10° SSW daylight
17 May - 07:32:58 10° S 07:38:29 36° ESE 07:44:08 10° NE daylight
17 May - 09:18:29 10° SW 09:24:36 57° NW 09:30:53 10° NNE daylight
17 May - 11:07:28 10° WNW 11:12:19 23° NNW 11:17:15 10° NNE daylight
17 May - 12:56:58 10° NW 13:01:06 18° N 13:05:17 10° NE daylight
17 May - 14:44:04 10° NNW 14:49:38 30° NNE 14:55:10 10° E daylight
17 May - 16:30:21 10° NW 16:36:49 89° ENE 16:43:12 10° SE daylight
17 May - 18:17:47 10° WNW 18:22:23 21° WSW 18:26:55 10° SSW daylight
18 May - 07:41:09 10° S 07:47:02 49° ESE 07:53:07 10° NE daylight
18 May - 09:27:34 10° WSW 09:33:30 45° NW 09:39:37 10° NNE daylight
18 May - 11:16:59 10° WNW 11:21:32 20° NNW 11:26:08 10° NNE daylight
18 May - 13:06:04 10° NNW 13:10:23 18° N 13:14:44 10° NE daylight
18 May - 14:52:49 10° NNW 14:58:41 36° NE 15:04:31 10° ESE daylight
18 May - 16:39:09 10° NW 16:45:32 69° WSW 16:51:51 10° SSE daylight
18 May - 18:27:29 10° WNW 18:30:45 15° W 18:34:01 10° SW daylight
19 May - 06:07:41 10° SE 06:10:32 14° E 06:13:25 10° ENE daylight
19 May - 07:49:34 10° SSW 07:55:40 67° ESE 08:01:59 10° NE daylight
19 May - 09:36:47 10° WSW 09:42:29 36° NW 09:48:21 10° NNE daylight
19 May - 11:26:30 10° NW 11:30:47 18° N 11:35:07 10° NNE daylight
19 May - 13:15:02 10° NNW 13:19:39 20° NNE 13:24:15 10° ENE daylight
19 May - 15:01:32 10° NNW 15:07:41 45° NE 15:13:46 10° ESE daylight
19 May - 16:48:00 10° NW 16:54:11 51° WSW 17:00:18 10° S daylight
20 May - 06:14:38 10° SSE 06:18:54 20° ESE 06:23:15 10° ENE daylight
20 May - 07:58:12 10° SW 08:04:24 89° ESE 08:10:48 10° NE daylight
20 May - 09:46:07 10° W 09:51:33 30° NNW 09:57:05 10° NNE daylight
20 May - 11:35:56 10° NW 11:40:04 18° N 11:44:14 10° NE daylight
20 May - 13:23:55 10° NNW 13:28:51 23° NNE 13:33:48 10° ENE daylight
20 May - 15:10:16 10° NNW 15:16:36 57° NE 15:22:52 10° SE daylight
20 May - 16:56:58 10° NW 17:02:46 37° WSW 17:08:30 10° S daylight
21 May - 06:22:14 10° SSE 06:27:19 28° ESE 06:32:33 10° NE daylight
21 May - 08:06:59 10° SW 08:13:10 70° NW 08:19:34 10° NE daylight
21 May - 09:55:33 10° W 10:00:40 25° NNW 10:05:53 10° NNE daylight
21 May - 11:45:16 10° NW 11:49:21 17° N 11:53:29 10° NE daylight
21 May - 13:32:43 10° NNW 13:38:01 26° NNE 13:43:19 10° E daylight
21 May - 15:19:00 10° NW 15:25:27 74° NE 15:31:50 10° SE daylight
21 May - 17:06:03 10° NW 17:11:16 27° WSW 17:16:27 10° SSW daylight
22 May - 06:30:12 10° S 06:35:50 39° ESE 06:41:38 10° NE daylight
22 May - 08:15:57 10° WSW 08:22:02 54° NW 08:28:18 10° NNE daylight
22 May - 10:05:03 10° WNW 10:09:51 22° NNW 10:14:43 10° NNE daylight
22 May - 11:54:28 10° NW 11:58:39 18° N 12:02:51 10° NE daylight
22 May - 13:41:29 10° NNW 13:47:07 31° NNE 13:52:45 10° E daylight
22 May - 15:27:46 10° NW 15:34:14 86° SW 15:40:36 10° SSE daylight
22 May - 17:15:23 10° WNW 17:19:43 19° WSW 17:24:00 10° SSW daylight
23 May - 06:38:27 10° SSW 06:44:25 53° ESE 06:50:34 10° NE daylight
23 May - 08:25:04 10° WSW 08:30:59 42° NW 08:37:02 10° NNE daylight
23 May - 10:14:35 10° WNW 10:19:04 20° NNW 10:23:37 10° NNE daylight
23 May - 12:03:32 10° NNW 12:07:55 19° NNE 12:12:20 10° NE daylight
23 May - 13:50:13 10° NNW 13:56:11 38° NE 14:02:04 10° ESE daylight
23 May - 15:36:35 10° NW 15:42:57 65° WSW 15:49:12 10° SSE daylight
23 May - 17:25:17 10° WNW 17:28:04 13° W 17:30:51 10° SW daylight
